#timestamp,LO_Frequency,Hit 
1498716015.5,286047000.4,N
1498716035.3,286047000.2,N
1498716055.2,286047001.2,N
1498716075.0,286046998.7,N
1498716075.9,286046998.7,N
1498716095.7,286046998.2,N
1498716115.6,286046998.3,N
1498716135.4,286046998.7,N
1498716155.2,286046998.2,N
1498716175.1,286046998.8,N
1498716176.0,286046998.8,N
1498716195.8,286047000.9,N
1498716215.6,286047001.8,N
1498716235.5,286047001.8,N
1498716255.3,286047002.6,N
1498716275.1,286047004.1,N
1498716295.9,286047004.4,N
1498716315.7,286047001.8,N
1498716335.5,286047004.1,N
1498716355.4,286047004.1,N
1498716375.2,286047003.3,N
1498716395.0,286047003.0,N
1498716395.9,286047003.0,N
1498716415.8,286047001.3,N
1498716435.6,286047003.2,N
1498716455.4,286047005.3,N
1498716475.3,286047003.9,N
1498716495.1,286047001.6,N
1498716515.8,286047001.8,N
1498716535.7,286047002.5,N
1498716555.5,286047001.6,N
1498716575.3,286047004.0,N
1498716595.2,286047006.0,N
1498716615.0,286047003.7,N
1498716615.9,286047003.7,N
1498716635.7,286047004.6,N
1498716655.6,286047005.1,N
1498716675.4,286047004.5,N
1498716695.2,286047005.1,N
1498716715.1,286047003.1,N
1498716716.0,286047003.1,N
1498716735.8,286047005.9,N
1498716755.6,286047005.7,N
1498716775.5,286047004.8,N
1498716795.3,286047007.6,N
1498716815.1,286047007.6,N
1498716835.9,286047007.6,N
1498716855.7,286047007.4,N
1498716875.5,286047006.6,N
1498716895.4,286047009.2,N
1498716915.2,286047008.3,N
1498716935.0,286047007.7,N
1498716935.9,286047007.7,N
1498716955.8,286047007.0,N
1498716975.6,286047007.1,N
1498716995.4,286047006.6,N
1498717015.3,286047006.7,N
1498717035.1,286047007.2,N
1498717055.8,286047007.2,N
1498717075.7,286047004.7,N
1498717095.5,286047005.3,N
1498717115.3,286047007.5,N
1498717135.2,286047003.0,N
1498717155.0,286047002.9,N
1498717155.9,286047002.9,N
1498717175.7,286047003.7,N
1498717195.6,286047003.6,N
1498717215.4,286047005.6,N
1498717235.2,286047003.5,N
1498717255.1,286047005.5,N
1498717256.0,286047005.5,N
1498717275.8,286047005.2,N
1498717295.6,286047004.6,N
1498717315.5,286047005.8,N
1498717335.3,286047005.2,N
1498717355.1,286047004.5,N
1498717375.9,286047007.4,N
1498717395.7,286047005.0,N
1498717415.5,286047006.7,N
1498717435.4,286047007.6,N
1498717455.2,286047006.4,N
1498717475.0,286047008.8,N
1498717475.9,286047008.8,N
1498717495.8,286047006.2,N
1498717515.6,286047008.8,N
1498717535.4,286047008.0,N
1498717555.3,286047010.5,N
1498717575.1,286047010.3,N
1498717595.8,286047011.9,N
1498717615.7,286047010.3,N
1498717635.5,286047009.9,N
1498717655.3,286047009.1,N
1498717675.2,286047008.7,N
1498717695.0,286047007.1,N
1498717695.9,286047007.1,N
1498717715.7,286047006.7,N
1498717735.6,286047007.5,N
1498717755.4,286047007.8,N
1498717775.2,286047008.9,N
1498717795.1,286047008.2,N
1498717796.0,286047008.2,N
1498717815.8,286047008.8,N
1498717835.6,286047008.5,N
1498717855.5,286047007.2,N
1498717875.3,286047006.9,N
1498717895.1,286047007.3,N
1498717915.9,286047006.5,N
1498717935.7,286047007.3,N
1498717955.5,286047007.3,N
1498717975.4,286047006.3,N
1498717995.2,286047006.5,N
1498718015.0,286047008.7,N
1498718015.9,286047008.7,N
1498718035.8,286047008.4,N
1498718055.6,286047012.0,N
1498718075.4,286047009.4,N
1498718095.3,286047009.8,N
1498718115.1,286047012.4,N
1498718135.8,286047012.4,N
1498718155.7,286047012.2,N
1498718175.5,286047009.8,N
1498718195.3,286047012.3,N
1498718215.2,286047013.7,N
1498718235.0,286047013.7,N
1498718235.9,286047013.7,N
1498718255.7,286047012.1,N
1498718275.6,286047009.8,N
1498718295.4,286047010.5,N
1498718315.2,286047012.4,N
1498718335.1,286047010.0,N
1498718336.0,286047010.0,N
1498718355.8,286047010.3,N
1498718375.7,286047008.3,N
1498718395.5,286047008.6,N
1498718415.3,286047009.0,N
1498718435.2,286047009.3,N
1498718455.9,286047011.1,N
1498718475.7,286047011.3,N
1498718495.6,286047011.5,N
1498718515.4,286047010.9,N
1498718535.2,286047012.8,N
1498718555.1,286047013.4,N
1498718556.0,286047013.4,N
1498718575.8,286047010.9,N
1498718595.6,286047011.2,N
1498718615.5,286047013.6,N
1498718635.3,286047014.0,N
1498718655.1,286047012.2,N
1498718675.9,286047011.1,N
1498718695.7,286047011.2,N
1498718715.5,286047011.8,N
1498718735.4,286047011.7,N
1498718755.2,286047011.2,N
1498718775.0,286047011.8,N
1498718775.9,286047011.8,N
1498718795.8,286047012.1,N
1498718815.6,286047011.9,N
1498718835.4,286047011.8,N
1498718855.3,286047011.7,N
1498718875.1,286047009.4,N
1498718876.0,286047009.4,N
1498718895.8,286047012.8,N
1498718915.7,286047012.6,N
1498718935.5,286047012.6,N
1498718955.3,286047015.5,N
1498718975.2,286047014.3,N
1498718995.9,286047015.1,N
1498719015.7,286047012.8,N
1498719035.6,286047015.3,N
1498719055.4,286047015.4,N
1498719075.2,286047013.3,N
1498719095.1,286047011.6,N
1498719096.0,286047011.6,N
1498719115.8,286047011.5,N
1498719135.6,286047010.9,N
1498719155.5,286047013.9,N
1498719175.3,286047012.9,N
1498719195.1,286047014.9,N
1498719215.9,286047014.3,N
1498719235.7,286047018.1,N
1498719255.5,286047015.8,N
1498719275.4,286047018.6,N
1498719295.2,286047018.6,N
1498719315.0,286047018.8,N
1498719315.9,286047018.8,N
1498719335.8,286047017.1,N
1498719355.6,286047014.4,N
1498719375.4,286047013.7,N
1498719395.3,286047012.1,N
1498719415.1,286047011.1,N
1498719435.8,286047011.1,N
1498719455.7,286047011.5,N
1498719475.5,286047011.0,N
1498719495.3,286047012.6,N
1498719515.2,286047012.8,N
1498719535.0,286047014.7,N
1498719535.9,286047014.7,N
1498719555.7,286047014.1,N
1498719575.6,286047014.4,N
1498719595.4,286047017.2,N
